www.pogodaiklimat.ru

Погода и климат >> Архив погоды >> ОАЭ >> Dubai


АРХИВ ПОГОДЫ в Dubai

Время (UTC), дата Ветер
(напр.,м/с)
 
Видим.   Явления Облачность Т
(С)
Тd
(С)
f
(%)
Тe
(С)
Тes
(С)
Комфортность P
(гПа)
Po
(гПа)
Тmin
(С)
Tmax
(С)
R
(мм)
R24
(мм)
S
(см)
03 14.10 Ю 3 10 км ясно +26.9 +22.8 78 +36 +36 очень
душно
1008.6 1008.1
06 14.10 ЮЗ 2 10 км ясно +32.5 +21.0 51 +40 +50 очень
душно
1009.9 1009.4 +26.8
09 14.10 СЗ 5 10 км ясно +34.3 +23.0 52 +44 +52 опасность
перегрева
1007.4 1006.9
12 14.10 СЗ 5 10 км ясно +34.0 +20.7 46 +41 +43 опасность
перегрева
1006.1 1005.6
18 14.10 нст 2 10 км ясно +31.2 +23.0 62 +41 +41 опасность
перегрева
1007.4 1006.9 +36.6
21 14.10 Ю 2 10 км ясно +29.7 +22.3 65 +39 +39 очень
душно
1007.2 1006.7
00 15.10 Ю 2 10 км ясно +28.2 +21.9 69 +36 +36 очень
душно
1007.2 1006.7
03 15.10 нст 2 8000 м пыль ясно +27.2 +21.6 71 +35 +35 очень
душно
1008.9 1008.4
09 15.10 Ю 3 10 км ясно +36.8 +16.8 31 +39 +52 опасность
солнечного
удара
1008.6 1008.0
12 15.10 З 5 10 км ясно +34.1 +22.5 51 +43 +46 опасность
перегрева
1007.4 1006.9
18 15.10 нст 1 10 км ясно +31.0 +23.8 66 +43 +43 опасность
перегрева
1009.3 1008.8 +36.8
21 15.10 Ю 2 10 км ясно +30.0 +22.9 66 +40 +40 очень
душно
1008.7 1008.2
00 16.10 Ю 2 10 км ясно +29.0 +23.3 71 +39 +39 очень
душно
1008.4 1007.9
03 16.10 нст 1 6000 м мгла ясно +26.3 +22.4 79 +34 +35 очень
душно
1010.1 1009.6
06 16.10 Ю 2 8000 м пыль ясно +32.5 +22.8 57 +43 +53 опасность
перегрева
1010.9 1010.4 +26.2
12 16.10 СЗ 6 10 км ясно +34.1 +18.9 41 +39 +41 очень
душно
1007.2 1006.7
15 16.10 З 4 10 км ясно +31.9 +22.5 58 +42 +42 опасность
перегрева
1007.9 1007.4
18 16.10 ЮЗ 2 10 км ясно +31.3 +24.1 66 +43 +43 опасность
перегрева
1009.0 1008.5 +37.8
21 16.10 Ю 2 10 км ясно +29.2 +22.6 68 +39 +39 очень
душно
1008.5 1008.0
00 17.10 ЮВ 2 10 км ясно +28.3 +22.9 73 +38 +38 очень
душно
1008.2 1007.7
06 17.10 Ю 3 10 км ясно +32.5 +19.3 46 +38 +47 очень
душно
1010.6 1010.0 +26.2
15 17.10 СЗ 5 10 км ясно +31.6 +22.8 60 +42 +42 опасность
перегрева
1007.7 1007.2
18 17.10 нст 2 10 км ясно +30.8 +23.6 66 +42 +42 опасность
перегрева
1009.0 1008.5 +36.1
21 17.10 Ю 3 10 км ясно +28.8 +22.0 67 +37 +37 очень
душно
1008.2 1007.7
00 18.10 ЮВ 2 10 км ясно +28.0 +21.9 69 +36 +36 очень
душно
1008.3 1007.8
03 18.10 Ю 2 8000 м пыль ясно +26.4 +20.6 70 +33 +33 очень
душно
1009.9 1009.4
09 18.10 СЗ 4 10 км ясно +34.1 +24.0 56 +46 +55 опасность
перегрева
1009.7 1009.2
12 18.10 С 5 10 км ясно +33.9 +22.3 51 +43 +45 опасность
перегрева
1008.3 1007.8
15 18.10 СЗ 4 10 км ясно +31.0 +25.9 74 +46 +46 опасность
перегрева
1009.3 1008.8
21 18.10 В 3 7000 м мгла ясно +29.6 +25.4 78 +43 +43 опасность
перегрева
1010.6 1010.1
00 19.10 В 3 3500 м мгла ясно +27.7 +25.2 86 +40 +40 очень
душно
1010.5 1010.0
06 19.10 СВ 3 10 км {туман} ясно +32.6 +21.4 52 +41 +48 опасность
перегрева
1013.4 1012.9 +27.0
09 19.10 СВ 3 10 км ясно +38.6 +5.8 13 +36 +47 очень
жарко
1011.1 1010.5
12 19.10 С 5 8000 м пыль ясно +35.3 +18.8 38 +40 +42 очень
душно
1009.6 1009.0
15 19.10 СВ 5 10 км ясно +34.2 +15.5 33 +36 +36 душно 1010.7 1010.1
21 19.10 В 2 10 км ясно +32.3 +5.3 18 +30 +30 жарко 1010.6 1010.1
00 20.10 В 3 8000 м пыль ясно +30.2 +8.9 27 +30 +30 жарко 1010.4 1009.9
06 20.10 нст 2 10 км ясно +32.8 +18.5 43 +38 +47 очень
душно
1012.9 1012.4 +27.6
09 20.10 нст 1 10 км ясно +35.6 +19.4 39 +41 +57 опасность
перегрева
1010.8 1010.2
12 20.10 СЗ 7 10 км ясно +33.4 +21.8 51 +42 +43 опасность
перегрева
1009.4 1008.9
15 20.10 СЗ 7 10 км ясно +31.5 +20.7 53 +39 +39 очень
душно
1009.7 1009.2
18 20.10 С 3 10 км ясно +31.7 +20.6 52 +39 +39 очень
душно
1011.2 1010.7 +37.3
21 20.10 ЮЗ 3 10 км ясно +29.3 +19.5 56 +35 +35 очень
душно
1010.3 1009.8
00 21.10 Ю 2 10 км ясно +28.3 +19.4 59 +34 +34 очень
душно
1009.9 1009.4

 

Местоположение метеостанции Dubai (ОАЭ): широта 25.25 долгота 55.33 высота над уровнем моря 5 м.

В архиве по умолчанию представлена погода в Dubai за последнюю неделю. Архивные данные за месяц целиком и за предыдущие месяцы, начиная с января 2011 года, Вы можете получить, выбрав интересующий диапазон дат из раскрывающегося списка и нажав кнопку "Ввод!".

Внимание! Время в таблицах - всемирное. Для получения местного времени необходимо прибавить поправку, которая в Dubai равна 4 ч.

Смотрите также архив погоды в соседних городах и на ближайших метеорологических станциях:

Погода в Sharjah (ОАЭ) (21 км)
Погода в Dubai Al Maktoum Int Airport (ОАЭ) (43 км)
Погода в Ras Al Khaimah Int Airport (ОАЭ) (73 км)
Погода в Abu Musa Island (Иран) (82 км)
Погода в Diba (Оман) (101 км)
Погода в Fujairah (ОАЭ) (102 км)
Погода в Sirri Island (Иран) (107 км)
Погода в Al Ain Int Airport (ОАЭ) (112 км)
Погода в Abu Dhabi (ОАЭ) (114 км)
Погода в Buraimi (Оман) (122 км)

Пояснения к столбцам:

Ветер - указаны скорость ветра в м/с - средняя за 10 мин, порывы в срок и между сроками (в фигурных скобках) и направление, откуда дует ветер: С - северный, СВ - северо-восточный, В - восточный, ЮВ - юго-восточный, Ю - южный, ЮЗ - юго-западный, З - западный, СЗ - северо-западный.
Видимость - горизонтальная дальность видимости в метрах или километрах. При видимости от 1 до 10 км при отсутствии осадков обычно наблюдается дымка, при ухудшении видимости до 1 км и менее - туман. В сухую погоду видимость может ухудшаться дымом, пылью или мглою.
Явления - указаны атмосферные явления, наблюдавшиеся в срок или в последний час перед сроком; фигурными скобками обозначены явления, наблюдавшиеся между сроками (за 1-3 часа до срока); квадратными скобками обозначены град или гололедные отложения с указанием их диаметра в мм.
Облачность - указаны через наклонную черту общая и нижняя облачность в баллах и высота нижней границы облаков в метрах; квадратными скобками обозначены формы облаков: Ci - перистые, Cs - перисто-слоистые, Cc - перисто-кучевые, Ac - высококучевые, As - высокослоистые, Sc - слоисто-кучевые, Ns - слоисто-дождевые, Cu - кучевые, Cb - кучево-дождевые. Подробнее классификацию облаков см. в Атласе облаков (PDF).
T - Температура воздуха - температура, измеренная на высоте 2 м над землей.
Td - Температура точки росы - температура, при понижении до которой содержащийся в воздухе водяной пар достигнет насыщения.
f - Относительная влажность воздуха - влажноcть воздуха, измеренная на высоте 2 м над землей.
Te - Эффективная температура - температура, которую ощущает одетый по сезону человек в тени. Характеристика душности погоды. При расчете учитывается влияние влажности воздуха и скорости ветра на теплоощущения человека.
Tes - Эффективная температура на солнце - температура, которую ощущает человек, с поправкой на солнечный нагрев. Характеристика знойности погоды. Зависит от высоты солнца над горизонтом, облачности и скорости ветра. Ночью, в пасмурную погоду, а также при ветре 12 м/с и более поправка равна нулю.
P - Атмосферное давление - приведенное к уровню моря атмосферное давление.
Po - Атмосферное давление - измеренное на уровне метеостанции атмосферное давление.
Tmin - Минимальная температура - минимум температуры воздуха на высоте 2 м над землей.
Tmax - Максимальная температура - максимум температуры воздуха на высоте 2 м над землей.
R - Количество осадков - Количество выпавших осадков за период времени, мм. При наведении курсора мыши на число - период времени, за который выпало указанное количество осадков.
R24 - Количество осадков - Количество выпавших осадков за 24 часа, мм.
S - Снежный покров - Высота снежного покрова, см. При наведении курсора мыши на число - состояние снежного покрова и степень покрытия местности в баллах.